Location: Unspecified
(41.1637°N, 24.2901°E)
Time: 21:55:58
(UTC+02:00)

ISS - Pass Details

Date: 29 May 2023
Orbit: 411 x 419 km, 51.6° (Epoch: 06 June)

Event Time Altitude Azimuth Distance (km) Brightness Sun altitude
Rises 22:01:06 0° 294° (WNW) 2,354 1.0 -19.4°
Reaches altitude 10° 22:03:33 10° 276° (W) 1,490 -0.4 -19.6°
Enters shadow 22:05:47 20° 235° (SW) 1,035 -1.8 -19.8°
